User: anonymous   Login
Location: Caltech
(34.1382°N, 118.1253°W)
Time: 11:18:12
(UTC-08:00)
Language:

Cosmos 44 Rocket - Orbit

View from above orbital plane
View from above orbital plane
View from above satellite
View from above satellite

Ground track
Ground track

The orbit data is extracted from the following two-line orbital elements,

1 00877U 64053B   15059.49055508  .00000289  00000-0  85247-4 0  9995
2 00877 065.0775 225.5110 0050097 077.1810 283.4880 14.59045420678991
Epoch (UTC): 28 February 2015 11:46:23
Eccentricity: 0.0050097
inclination: 65.0775°
perigee height: 661 km
apogee height: 732 km
right ascension of ascending node: 225.5110°
argument of perigee: 77.1810°
revolutions per day: 14.59045420
mean anomaly at epoch: 283.4880°
orbit number at epoch: 67899

The dashed part of the orbit path shows where the satellite is in the earth's shadow,  

DLR